Home > Weather > Macon > Past weeks

Flag for USA Past Weather in Macon, Georgia, USA — Yesterday and Last 2 Weeks

Now
96 °F

Sunny.


Feels Like: 93 °F
Forecast: 71 / 92 °F
Wind: 15 mph from East

Location: Middle Georgia Regional Airport

Current Time: Aug 27, 2016 at 6:34:29 PM

Latest Report: Aug 27, 2016 at 5:53 PM


Visibility: 10 mi

Pressure: 29.97 "Hg

Humidity: 20%

Dew Point: 49 °F

Location of MaconLocation

Past Weather in Macon — Graph

°F

Macon Temperature Yesterday

Maximum temperature yesterday: 97 °F (at 3:53 PM)
Minimum temperature yesterday: 69 °F (at 5:53 AM)
Average temperature yesterday: 83 °F

High & Low Weather Summary for the Past Weeks

 TemperatureHumidityPressure
High98 °F (Aug 27, 4:53 PM)97% (Aug 14, 5:53 AM)30.25 "Hg (Aug 14, 5:53 AM)
Low68 °F (Aug 25, 6:53 AM)21% (Aug 27, 4:53 PM)29.88 "Hg (Aug 20, 4:53 PM)
Average82 °F73%30.07 "Hg
* Reported Aug 12 4:53 PM — Aug 27 4:53 PM, Macon, Weather by CustomWeather, © 2016

Note: Actual official high and low records may vary slightly from our data, if they occured in-between our weather recording intervals... More about our weather records

Advertising

Macon Weather History for the Previous 24 Hours

Scroll right to see more
 ConditionsComfort  
Time TempWeatherWind HumidityBarometerVisibility
4:53 PM
Sat, Aug 27
98 °FSunny.13 mph21%29.98 "Hg10 mi
3:53 PM97 °FSunny.10 mph30%30.00 "Hg10 mi
2:53 PM97 °FSunny.12 mph30%30.02 "Hg10 mi
1:53 PM94 °FPassing clouds.13 mph38%30.03 "Hg10 mi
12:53 PM92 °FScattered clouds.10 mph46%30.05 "Hg10 mi
11:53 AM90 °FSunny.9 mph48%30.06 "Hg10 mi
10:53 AM86 °FSunny.12 mph55%30.08 "Hg10 mi
9:53 AM81 °FSunny.7 mph67%30.08 "Hg10 mi
8:53 AM78 °FSunny.6 mph74%30.08 "Hg10 mi
7:53 AM72 °FClear.No wind91%30.06 "Hg10 mi
6:53 AM70 °FClear.No wind90%30.04 "Hg10 mi
5:53 AM70 °FClear.No wind93%30.03 "Hg9 mi
4:53 AM72 °FClear.No wind87%30.03 "Hg10 mi
3:53 AM72 °FClear.5 mph87%30.04 "Hg10 mi
2:53 AM74 °FClear.No wind82%30.05 "Hg10 mi
1:53 AM75 °FClear.3 mph79%30.06 "Hg10 mi
12:53 AM76 °FClear.3 mph77%30.06 "Hg10 mi
11:53 PM
Fri, Aug 26
79 °FClear.3 mph67%30.06 "Hg10 mi
10:53 PM78 °FClear.3 mph74%30.05 "Hg10 mi
9:53 PM80 °FClear.No wind69%30.03 "Hg10 mi
8:53 PM85 °FSunny.3 mph55%30.01 "Hg10 mi
7:53 PM88 °FSunny.6 mph50%29.99 "Hg10 mi
6:53 PM93 °FSunny.12 mph41%29.98 "Hg10 mi
Weather by CustomWeather, © 2016

See weather overviewHow to use our weather pages